Theta_e
298 297 297 295 295 295 295 294 295 295 296 297 294 294 291 291 288 285 286 288 289 294 295 292 295 295 295 292 292 291 291 292 291 290 290 290 290 290 291 292 292 292 293 294 294 295 295 295 295 295 295 295 295 296 296 297 298 297 298 301 302 303 301 303 300 302 301 301 300 302 302 302 302 300
297 296 295 294 293 293 294 294 294 296 294 293 295 292 292 292 289 289 286 285 290 290 293 292 292 292 291 292 291 291 291 292 290 290 289 289 289 290 291 291 291 292 292 294 294 294 295 294 294 294 293 294 295 296 296 297 298 298 300 302 302 301 302 302 301 302 301 302 303 300 301 304 303 301
295 294 293 294 292 293 293 292 292 293 293 293 292 291 294 292 291 289 288 285 290 291 288 290 292 290 291 291 290 291 291 291 290 289 289 289 289 290 289 290 291 291 292 292 293 294 294 294 293 293 293 293 294 295 296 296 296 297 300 300 299 300 302 300 300 300 300 301 301 299 301 303 302 301
294 293 292 292 292 292 291 291 292 291 291 292 291 293 292 292 291 289 287 286 285 290 289 290 290 291 290 290 289 289 290 291 289 289 289 288 288 288 287 289 289 290 291 291 292 292 293 292 292 293 292 293 294 295 296 296 296 297 298 299 299 299 299 298 298 299 299 300 301 301 301 301 302 303
292 292 291 291 291 292 291 290 290 290 289 291 291 291 290 291 291 290 287 285 284 287 291 290 289 290 290 288 289 288 288 288 288 288 288 288 287 287 287 287 288 289 289 290 291 291 291 291 291 291 291 292 292 293 295 294 294 296 297 297 297 298 298 299 298 299 298 299 300 300 300 300 302 302
292 291 290 289 290 291 290 290 289 289 289 290 289 289 288 289 289 290 287 285 284 283 287 287 289 288 289 286 289 287 286 286 287 286 287 287 287 286 286 285 286 288 289 290 290 290 290 290 290 290 290 291 291 293 294 293 294 295 296 295 296 297 297 299 298 297 296 298 299 299 299 300 301 301
291 290 289 288 289 290 289 288 288 289 289 289 288 288 288 287 288 288 287 285 283 283 284 286 286 286 287 286 286 287 287 287 286 285 285 286 286 286 285 285 286 288 289 290 289 289 289 289 289 290 290 290 291 292 292 292 292 294 295 294 295 295 295 296 296 296 296 297 298 297 298 299 299 300
290 289 288 288 288 289 288 287 287 288 288 288 288 288 288 287 287 287 286 285 284 283 282 284 284 286 285 285 287 287 286 285 284 285 285 285 284 284 285 285 285 286 288 288 288 288 288 288 289 289 289 290 290 291 291 291 292 292 293 294 294 294 293 294 294 294 295 296 297 296 297 298 298 299
290 289 288 288 288 288 287 287 287 286 287 287 287 287 287 287 287 286 286 285 285 283 282 283 285 285 285 286 285 285 283 283 283 284 283 283 283 283 284 284 285 286 287 286 286 286 286 287 287 288 288 289 289 290 290 290 290 291 292 292 292 293 293 293 293 293 294 293 294 295 296 297 297 297
289 289 288 287 288 288 287 287 286 286 286 287 286 286 286 286 286 285 285 285 284 284 283 283 283 284 283 283 283 284 283 282 281 281 282 282 282 282 281 282 284 284 284 283 283 284 284 285 286 286 287 288 288 289 289 289 289 290 291 292 292 292 292 292 292 292 292 292 292 293 294 295 295 294
288 288 287 287 287 287 287 286 286 286 286 286 286 285 285 285 285 284 285 284 283 283 282 283 283 282 283 283 281 283 283 282 282 279 278 278 281 281 281 280 282 283 282 283 284 283 283 284 283 284 285 286 287 287 287 288 289 290 291 291 291 291 291 291 291 291 291 292 291 292 292 292 294 295
287 287 287 287 287 287 287 287 287 286 286 286 285 285 284 285 284 284 284 283 283 282 282 282 281 282 281 281 282 283 282 280 280 280 278 277 278 279 280 281 279 280 280 279 279 281 282 282 282 284 284 284 285 285 285 286 287 289 291 291 291 291 290 291 290 290 290 290 291 291 291 291 292 294
286 286 286 286 285 284 283 284 285 285 285 286 285 285 285 284 284 283 283 282 282 281 281 280 281 280 280 280 280 279 279 278 278 279 279 278 279 279 279 279 280 280 279 278 278 278 279 278 279 279 280 281 282 282 284 285 287 290 291 290 290 290 290 290 290 290 290 290 290 290 290 290 290 291
285 285 285 283 282 282 283 283 283 283 283 283 285 284 285 283 282 281 280 279 280 279 279 279 279 278 278 279 279 278 279 280 279 278 278 277 278 278 277 278 277 279 278 277 276 277 279 278 278 278 278 280 281 280 281 283 286 288 290 290 290 290 289 289 289 289 289 289 289 289 290 289 289 289
283 283 282 282 282 281 282 282 283 283 283 283 283 283 283 283 282 280 279 279 280 279 278 278 278 278 278 278 278 279 279 279 278 278 278 278 277 276 274 272 276 278 278 277 275 276 278 278 276 277 277 278 279 281 281 286 287 288 289 289 289 289 289 289 288 288 288 288 288 288 289 289 289 288
283 282 281 281 281 281 281 281 282 282 282 283 283 283 283 282 282 282 280 279 278 278 278 278 278 278 277 278 279 279 279 278 278 278 278 277 276 275 274 274 273 277 279 276 275 274 277 277 277 276 277 278 279 280 283 286 287 288 288 289 289 289 288 288 288 288 288 287 287 287 287 288 288 287
283 282 282 281 282 282 282 282 282 281 281 283 283 283 282 282 282 282 282 282 281 280 278 278 278 278 279 278 279 280 279 279 277 277 277 277 276 275 274 274 275 276 278 276 274 272 275 277 275 275 277 278 278 280 283 285 286 287 287 288 288 288 287 287 287 287 287 287 286 286 286 287 287 287
283 282 282 281 280 280 281 281 281 281 282 282 282 282 282 281 281 281 282 281 281 281 280 279 278 280 281 279 280 280 280 278 277 277 275 276 275 274 274 276 276 276 278 275 273 272 274 276 275 274 276 277 278 279 282 284 285 286 286 287 287 287 287 286 286 286 286 286 286 286 285 285 285 286
283 282 282 281 281 280 280 281 281 282 282 283 282 282 281 280 280 281 281 281 281 281 281 281 281 281 281 280 280 280 280 280 279 278 276 276 276 276 277 276 276 276 276 274 274 270 273 275 274 274 275 276 277 279 281 282 284 284 285 286 286 286 286 286 286 286 286 286 285 285 285 285 284 284
282 282 282 281 281 280 280 282 283 283 283 282 281 280 279 279 279 279 281 282 282 281 281 281 281 281 281 282 281 281 280 280 279 278 278 277 276 274 272 271 273 273 275 275 274 272 272 274 273 273 276 276 275 278 278 280 282 283 284 284 285 285 285 285 285 285 285 285 285 285 284 284 283 282
281 281 281 281 280 280 280 282 283 284 283 281 280 278 278 278 278 277 278 281 282 282 282 282 283 282 282 282 282 282 282 280 279 277 275 274 274 271 270 271 271 271 273 275 275 272 271 273 273 273 274 275 275 277 277 277 280 281 282 282 283 283 283 283 283 284 284 285 284 284 284 282 282 281
281 281 282 282 280 280 280 283 284 284 283 280 279 278 278 277 276 277 279 280 281 282 282 281 281 280 280 280 281 281 280 279 278 275 272 274 273 271 271 269 270 271 272 273 275 272 271 273 274 272 273 274 276 277 275 275 276 278 278 280 280 281 281 281 281 281 282 283 284 284 284 282 280 277
280 280 280 281 280 280 281 283 284 284 282 280 279 279 278 276 276 277 279 279 278 277 276 275 275 276 278 278 277 276 278 278 277 277 275 275 273 270 270 270 269 268 270 272 275 271 271 271 273 272 270 270 273 276 275 274 274 274 274 274 275 278 279 279 279 279 280 281 282 283 283 283 279 275
279 279 279 280 281 282 283 284 284 284 283 280 280 279 278 276 275 279 278 278 278 277 276 274 275 275 276 276 275 275 275 276 276 277 276 275 274 271 271 270 270 268 269 271 276 272 271 272 271 273 272 269 268 272 275 273 274 274 273 273 272 275 276 276 276 278 278 279 280 281 282 283 281 275
278 278 278 279 281 282 283 284 284 283 283 282 281 280 278 278 279 279 277 277 277 274 273 273 274 274 274 274 274 274 275 275 276 276 276 276 275 273 271 270 269 269 271 273 276 272 270 271 270 271 271 272 272 272 275 273 272 272 273 272 271 272 272 272 274 272 275 277 278 279 280 281 282 279
279 278 278 278 280 283 283 283 283 283 283 283 281 279 280 280 280 277 277 274 273 273 273 273 273 273 273 273 272 273 273 274 275 275 275 275 275 274 273 271 269 268 269 272 276 272 270 269 270 270 271 270 271 273 273 272 271 271 272 270 270 271 271 271 271 271 272 272 272 276 277 280 280 281
279 279 279 279 280 283 283 283 282 283 283 282 280 281 280 279 278 276 274 274 273 272 272 272 271 272 272 272 272 272 272 274 275 275 275 275 274 273 272 272 272 271 271 271 271 272 271 270 272 270 269 271 271 272 274 271 268 270 271 271 270 270 271 270 270 270 271 271 272 276 276 277 278 279
280 279 279 279 281 283 283 282 282 282 282 279 280 280 278 277 276 273 273 272 272 272 271 270 270 271 271 271 271 272 273 273 273 273 274 274 274 271 270 271 271 271 271 270 270 271 272 271 271 272 272 271 271 271 271 273 270 269 268 270 269 269 270 270 269 270 271 271 271 271 271 271 273 273
280 280 281 281 282 282 282 281 282 281 280 279 279 277 276 274 272 272 272 272 270 269 270 270 270 270 270 270 271 270 271 273 273 273 274 272 271 270 270 270 271 270 271 271 270 272 271 271 271 272 272 273 272 272 272 270 268 267 269 269 266 269 269 269 269 269 270 270 270 270 270 271 271 273
281 281 281 282 282 281 280 280 278 276 276 277 276 275 274 272 272 272 271 270 269 269 270 270 269 269 270 270 270 270 271 271 272 273 273 271 270 269 269 269 270 270 270 270 271 271 269 268 270 271 271 272 272 270 268 267 266 267 268 266 267 270 268 269 268 268 269 269 269 269 271 271 272 272
280 280 280 280 280 279 280 278 277 275 275 273 272 271 271 271 271 270 270 269 269 269 269 269 269 269 269 269 269 269 271 271 272 274 273 271 269 269 268 268 268 270 270 269 272 273 271 268 267 267 268 269 270 269 267 268 268 267 265 266 267 263 266 268 268 268 268 269 268 269 270 271 271 273
279 279 279 279 278 276 275 274 272 271 271 270 270 270 270 270 270 270 270 269 267 267 268 268 268 267 267 268 269 270 270 271 272 273 272 271 269 269 268 266 267 268 268 269 269 272 273 269 267 268 267 268 266 266 268 269 267 265 265 267 267 266 266 266 266 267 268 268 267 267 269 270 270 272
278 277 276 274 274 272 271 270 269 269 268 269 269 268 269 268 267 267 267 266 267 267 267 267 267 267 267 268 269 269 269 270 271 272 271 271 270 268 267 267 268 268 267 267 269 269 271 269 270 268 267 267 267 266 265 265 265 266 265 264 266 265 264 265 265 265 267 267 266 267 268 270 271 272
275 274 273 272 271 270 269 269 269 269 268 268 267 266 268 268 267 267 268 267 267 267 266 267 266 267 267 267 268 268 268 269 270 272 272 270 270 267 266 266 267 268 268 267 267 267 268 268 270 270 269 268 266 266 266 265 265 266 265 265 265 264 265 264 265 264 265 265 265 266 267 269 270 272
273 273 271 271 270 270 270 269 270 270 269 269 268 267 267 267 267 268 267 267 267 266 265 266 266 267 267 266 267 267 268 268 269 270 271 271 269 268 267 266 266 266 266 266 266 266 267 267 269 271 271 269 267 267 271 266 264 265 265 265 266 265 264 264 265 264 264 265 266 265 265 268 269 270
273 273 272 271 270 270 270 270 271 271 270 270 269 268 267 267 267 266 266 267 265 265 265 265 266 266 266 266 266 266 267 268 268 269 269 269 268 268 268 267 266 266 266 266 265 266 266 265 266 268 269 270 270 269 265 270 269 266 265 265 264 265 266 265 264 264 264 263 265 265 264 265 266 269
273 272 272 272 272 271 270 271 271 270 270 269 269 268 267 267 267 266 266 266 264 264 265 265 265 266 266 266 266 266 266 266 266 268 268 269 268 268 267 267 267 266 265 266 266 265 265 264 265 267 269 269 269 268 267 265 269 270 264 264 264 264 264 265 264 264 264 264 263 264 264 264 264 267
273 273 272 272 272 271 271 271 271 270 269 268 268 267 267 267 267 265 263 262 263 264 265 265 265 265 265 265 264 264 265 265 266 267 267 268 267 267 267 266 265 265 265 266 266 264 264 263 264 265 266 267 268 269 268 265 265 267 270 265 264 264 264 264 263 264 263 263 263 264 264 264 266 269
274 273 273 272 272 272 271 270 270 269 268 267 267 266 266 265 265 263 263 263 263 264 264 265 265 265 265 264 265 265 264 265 265 266 267 267 267 266 266 265 265 265 265 264 265 264 264 263 263 263 263 265 267 266 264 264 264 264 268 270 266 263 264 264 263 264 264 263 263 264 264 266 269 272
274 274 273 273 272 272 271 271 269 269 268 267 266 266 265 265 264 263 263 263 263 264 264 264 264 265 264 265 264 265 265 264 264 265 266 267 267 267 266 266 265 264 263 264 263 264 263 263 263 262 263 263 263 264 266 268 267 267 266 268 271 267 264 264 263 263 264 263 263 264 263 264 263 265
274 273 273 272 272 271 270 270 269 268 267 266 265 266 265 264 264 263 263 264 264 263 263 264 264 263 263 264 264 264 263 264 265 266 266 266 266 266 266 266 265 265 264 263 263 264 263 262 263 267 264 262 265 266 266 266 264 263 263 264 270 271 270 269 264 264 264 263 263 263 263 263 263 263
275 274 274 273 272 271 270 268 268 267 266 265 264 264 263 264 263 264 264 264 263 263 263 263 263 263 263 263 263 263 263 263 264 265 266 265 265 265 265 265 264 265 265 264 265 265 264 262 264 263 263 263 263 263 264 265 264 263 263 263 264 270 271 270 270 269 265 263 263 262 262 262 262 262
273 273 273 272 271 270 269 268 267 266 265 265 264 263 263 262 262 263 262 262 262 262 262 262 263 263 263 263 263 262 262 262 264 264 264 264 264 264 264 264 265 265 264 264 266 266 267 266 265 265 265 264 264 264 262 262 263 262 262 262 263 264 266 270 270 270 270 270 270 268 266 264 262 261
274 273 272 272 270 269 269 268 266 266 265 264 263 262 262 262 261 262 262 262 262 262 262 263 263 263 262 262 261 260 261 262 263 264 264 264 264 264 264 264 264 264 264 263 264 265 266 266 267 266 265 264 265 264 263 262 262 263 263 263 263 264 265 266 267 270 271 271 272 272 273 272 271 271
274 273 272 271 270 269 268 267 266 265 264 263 262 262 262 262 262 262 262 262 262 263 263 263 262 262 262 262 261 260 261 264 264 264 264 264 264 264 264 264 264 264 264 264 262 262 263 265 265 266 265 265 265 264 264 264 263 263 263 262 262 263 264 264 266 266 267 267 270 271 272 273 272 271
Wind_Speed
6 5 4 4 4 3 3 2 2 1 0 0 0 1 1 1 2 3 2 2 2 0 2 1 2 4 1 3 3 4 4 3 4 6 6 6 4 11 18 16 16 18 20 23 24 25 26 27 28 29 29 30 30 30 30 30 31 33 34 35 35 34 35 35 35 35 36 37 39 40 40 40 42 42
5 5 4 4 3 4 2 3 2 1 0 0 0 1 1 1 1 1 2 3 2 2 2 2 2 3 4 3 4 4 4 4 6 5 5 5 6 14 14 15 17 18 20 22 25 25 26 26 28 28 28 29 29 29 30 31 33 34 35 37 35 35 35 36 37 37 38 39 39 38 38 40 43 46
5 5 5 3 4 3 4 4 2 1 1 1 0 0 0 1 1 1 1 1 1 3 3 2 3 3 4 4 5 3 3 4 6 5 5 5 9 10 8 13 16 18 21 23 25 25 26 26 27 28 28 28 28 28 30 31 33 34 35 36 34 32 35 35 36 36 37 38 40 40 40 41 43 46
5 5 5 4 4 4 3 3 2 2 1 1 0 0 0 0 1 1 2 3 6 3 4 4 4 4 5 5 5 5 4 5 6 5 5 7 8 7 7 11 16 17 20 23 24 25 25 26 27 27 27 27 27 28 29 30 31 32 32 34 34 34 35 35 35 35 36 36 37 40 40 41 42 46
5 5 5 4 4 3 3 3 2 2 2 1 0 1 0 0 1 0 1 3 6 5 2 3 4 5 4 5 4 6 6 5 5 7 6 6 6 7 7 7 11 15 19 22 24 25 25 25 25 25 26 26 26 27 29 29 30 30 30 31 32 34 34 35 35 36 35 36 36 38 39 41 42 45
4 4 5 5 4 2 3 3 3 2 2 1 1 1 0 1 0 0 1 3 3 6 4 3 4 4 4 6 4 6 7 6 6 7 5 4 6 7 7 8 8 16 18 21 23 24 25 26 25 25 24 25 26 28 29 28 30 31 30 29 31 32 33 34 34 35 35 35 36 37 38 39 41 43
5 5 5 5 4 3 3 3 2 2 2 1 1 1 0 0 0 0 1 2 3 4 5 5 4 4 5 5 6 6 4 5 6 6 5 6 6 5 6 7 7 15 21 22 21 22 24 24 25 25 24 24 25 27 28 28 29 30 29 29 30 31 32 33 34 34 35 36 36 37 38 38 39 41
6 6 6 5 5 4 4 3 3 2 2 2 2 2 1 1 1 1 1 2 3 4 6 3 5 5 6 5 5 4 5 6 6 5 4 5 6 8 8 7 5 9 18 20 20 21 22 22 22 23 24 24 25 26 27 28 29 29 29 28 30 31 31 32 33 33 34 35 37 38 39 38 39 40
6 6 6 6 5 4 5 4 3 3 2 2 2 1 1 1 1 1 2 2 2 3 6 6 4 4 4 4 5 5 7 7 4 4 6 6 5 6 7 8 9 12 15 15 18 20 20 20 21 22 22 22 24 26 26 27 29 29 28 28 29 31 31 30 31 32 33 34 35 36 38 39 40 40
4 5 6 6 5 5 5 5 4 4 3 2 2 2 1 1 1 2 2 2 2 3 5 5 6 3 5 5 4 4 6 9 9 7 5 4 5 8 8 7 8 8 8 7 9 14 16 19 24 23 22 21 23 24 25 25 29 30 27 28 29 29 30 30 31 32 33 33 34 35 37 38 39 41
4 5 5 5 4 4 3 4 5 5 4 3 2 2 2 1 1 1 1 1 2 3 4 4 4 4 3 4 6 5 6 6 6 9 13 9 6 5 8 9 8 7 6 9 15 14 15 16 14 18 20 21 23 23 23 24 28 27 25 27 28 29 29 30 31 31 32 33 34 34 35 36 39 39
4 5 5 4 4 4 3 4 4 4 4 3 3 2 2 1 1 1 1 2 2 2 3 3 4 4 5 4 3 5 6 7 6 6 8 12 14 12 9 7 9 7 8 9 8 9 10 11 14 16 17 19 22 22 21 22 27 28 26 26 27 28 29 30 30 30 31 32 33 34 34 35 36 38
5 5 4 4 3 5 6 8 6 5 3 2 3 3 2 1 0 0 1 2 2 2 3 4 3 4 4 4 6 7 7 7 9 9 8 9 9 10 10 9 7 5 8 10 9 7 6 9 9 8 8 10 16 15 20 17 24 28 27 27 27 27 29 29 28 28 29 30 32 33 33 34 35 36
5 5 4 5 9 8 7 7 7 6 4 4 2 2 1 1 0 0 1 1 1 1 2 2 4 4 3 5 5 5 5 6 6 8 9 10 11 10 11 7 3 5 7 12 12 10 7 8 8 7 8 8 10 9 10 13 18 23 27 27 27 27 28 29 28 27 27 28 30 31 32 33 35 35
7 6 6 5 6 7 7 6 8 7 6 5 4 3 3 2 1 1 1 1 0 1 2 2 2 3 5 5 4 5 6 6 7 8 9 9 10 10 11 13 11 3 9 10 10 10 7 8 9 8 8 8 9 10 11 22 24 24 24 26 27 27 28 28 28 28 27 27 27 30 32 33 33 34
7 7 7 6 5 5 7 6 6 6 7 7 6 5 4 3 3 3 2 1 1 1 2 2 3 4 4 5 6 5 6 7 8 7 7 7 8 9 10 9 11 9 9 11 10 11 7 6 8 8 8 8 8 10 17 24 24 24 24 24 25 26 27 27 27 27 27 27 27 27 28 31 33 33
8 7 7 6 5 3 5 7 6 6 6 7 7 5 4 4 5 4 4 4 3 2 2 3 5 5 5 6 5 5 6 7 8 7 7 7 7 7 9 10 11 12 10 9 9 10 8 7 8 8 8 8 9 10 15 23 23 23 23 23 24 25 26 26 27 27 27 26 27 27 26 28 31 33
8 8 8 7 6 6 6 5 6 6 6 6 6 6 5 4 6 6 6 5 6 6 4 5 5 6 5 6 7 6 6 7 7 8 7 7 8 8 9 11 11 10 7 6 8 9 6 6 8 8 8 8 9 7 13 21 22 22 22 22 23 24 25 26 26 27 27 26 25 25 26 27 27 31
7 7 7 7 7 8 7 6 8 7 6 6 5 3 2 2 1 2 2 3 3 3 4 5 6 6 5 6 7 7 6 6 7 6 7 7 8 8 7 7 7 7 4 4 6 6 9 7 8 8 8 8 8 6 10 17 20 21 20 21 22 22 23 25 26 27 27 27 25 24 23 24 25 26
5 5 6 6 7 8 7 9 12 8 5 4 4 4 2 2 2 2 2 3 3 4 5 5 6 6 6 9 8 8 7 5 4 5 5 5 5 6 7 7 6 5 4 6 5 7 8 6 8 9 7 8 7 6 4 12 19 20 19 19 20 21 21 22 24 25 27 27 27 25 23 21 22 23
5 5 6 6 7 7 7 11 13 10 7 5 6 5 4 3 2 2 2 6 8 9 10 11 11 12 13 12 12 11 11 8 5 5 6 5 5 6 7 7 5 6 6 5 3 5 7 7 8 9 8 8 8 4 4 5 13 18 19 19 19 20 20 20 21 23 24 26 27 27 25 21 20 21
5 5 7 7 7 7 7 14 14 13 9 6 7 6 6 5 4 4 3 3 3 7 9 10 10 11 10 10 10 9 8 7 5 4 5 5 5 6 6 7 7 7 6 0 4 5 7 7 7 8 8 8 4 4 2 5 7 13 13 19 19 20 20 20 20 21 22 24 26 27 27 24 19 11
4 5 6 9 7 8 9 16 14 14 10 6 7 7 7 6 6 5 3 3 3 2 2 2 2 4 5 4 3 3 7 7 6 4 4 3 4 5 6 7 7 6 3 2 7 5 6 8 7 7 7 5 6 3 3 3 5 6 7 8 9 18 19 20 19 20 20 21 23 26 28 27 19 10
5 6 6 8 12 12 14 15 15 14 14 8 6 7 6 6 6 4 3 3 3 4 3 3 3 4 4 3 2 2 2 3 4 4 4 3 4 5 6 6 6 6 3 2 6 5 6 4 6 6 5 6 5 5 6 3 3 4 5 7 6 12 15 15 14 19 19 19 22 22 25 26 24 10
6 6 6 7 12 15 15 15 15 14 15 11 6 6 5 4 4 4 2 4 6 3 3 3 3 3 2 2 2 2 3 3 2 3 3 3 4 5 5 6 7 8 8 4 8 5 5 5 7 6 5 4 6 7 6 4 2 4 5 5 6 7 7 8 6 7 12 18 20 21 22 23 26 20
5 6 7 7 13 18 17 15 15 15 14 14 7 6 8 8 8 5 3 2 2 3 3 2 1 1 1 2 2 2 3 3 4 2 2 4 3 3 3 4 6 7 8 4 9 4 5 5 5 6 5 5 7 8 7 4 1 4 4 4 4 6 6 6 7 7 7 8 8 13 16 22 20 24
8 5 6 7 15 19 17 15 15 15 15 12 7 10 10 9 8 6 2 4 2 2 2 1 1 2 2 2 3 3 2 3 2 2 3 3 3 3 4 5 6 8 8 5 4 3 4 5 6 5 6 6 7 8 7 3 3 4 5 5 4 5 6 5 6 6 7 8 8 17 16 18 20 20
5 6 6 8 17 18 16 15 15 14 13 9 11 11 11 9 8 3 4 3 3 3 2 2 3 3 3 2 2 3 2 2 3 4 5 6 5 4 4 5 6 7 8 7 5 3 4 6 7 6 7 6 6 7 5 4 3 4 5 6 3 3 5 6 6 6 6 7 7 8 8 8 8 9
4 6 10 13 17 16 14 15 14 12 13 12 11 11 11 9 4 4 3 3 3 3 3 3 3 3 2 3 2 2 3 3 5 6 5 3 3 4 5 6 7 8 6 5 4 3 3 4 6 7 6 6 6 6 4 4 3 3 4 6 4 5 5 5 4 5 6 6 7 7 7 7 8 8
8 11 12 14 15 13 11 9 7 6 7 11 11 11 10 5 4 4 3 3 4 3 3 3 3 2 1 1 1 2 3 4 5 5 4 3 3 1 2 4 5 5 7 6 4 3 2 3 4 5 6 6 2 4 4 4 3 3 3 3 5 4 3 6 5 5 6 6 6 6 7 6 7 7
6 9 9 8 9 7 12 9 8 6 9 9 8 6 5 4 3 3 3 4 4 3 3 3 2 1 1 1 1 3 4 4 4 3 3 3 3 1 2 3 5 6 4 5 6 3 2 2 3 4 5 5 4 1 2 3 4 3 3 3 3 3 5 5 5 5 6 5 4 5 6 7 7 7
5 6 7 8 6 5 5 5 3 3 5 5 6 6 5 4 4 5 5 4 2 2 2 2 2 1 2 3 3 3 3 3 3 3 3 3 3 2 2 3 4 3 3 2 3 4 4 2 2 4 3 3 3 2 2 2 2 3 3 1 2 1 2 4 5 5 6 5 4 5 6 7 7 7
5 5 5 5 7 6 6 6 6 5 5 6 5 4 4 4 3 3 4 5 5 5 4 4 4 3 2 2 3 3 3 4 3 2 2 3 2 2 2 4 4 4 3 3 3 3 1 2 1 1 2 1 1 1 2 3 1 1 2 3 2 2 3 3 3 4 5 4 5 4 5 6 6 7
7 7 7 7 7 6 6 6 6 6 6 5 5 5 6 5 5 5 5 4 4 4 4 4 4 3 3 3 3 3 3 3 3 3 4 2 2 2 3 4 4 4 3 3 3 3 1 3 3 3 2 1 1 2 2 3 2 0 1 1 2 2 1 3 3 3 4 3 3 4 4 4 5 6
8 9 8 8 7 6 6 7 8 8 6 5 5 6 6 5 5 5 4 4 4 4 4 4 3 3 3 3 2 2 3 3 3 3 3 2 2 3 3 3 3 3 3 3 4 3 1 3 4 4 4 4 2 3 3 2 2 1 2 1 0 1 1 2 3 3 4 3 4 3 2 3 4 5
7 8 8 8 9 8 8 10 9 8 7 7 8 7 6 6 5 5 5 4 4 4 4 4 4 4 4 3 2 2 3 4 3 4 4 3 2 2 3 3 3 3 2 3 4 2 1 3 3 3 4 4 4 3 2 1 1 1 0 0 1 0 0 1 1 1 2 3 3 3 2 2 2 4
8 8 9 9 8 9 11 10 9 9 8 8 7 7 7 6 5 5 4 5 3 3 3 3 3 4 3 3 4 4 4 4 3 4 3 3 2 3 3 3 4 2 2 3 2 1 1 2 3 3 4 5 5 6 1 0 1 1 0 0 0 1 1 1 1 1 1 2 1 3 2 2 1 3
10 8 9 10 9 9 9 8 8 9 8 7 5 3 3 3 4 4 5 4 4 4 5 4 4 4 4 4 3 3 3 3 3 3 4 3 3 3 3 2 2 2 3 3 3 3 2 3 3 2 2 4 4 6 1 1 1 0 2 1 1 1 0 1 2 0 1 2 2 3 2 1 3 4
10 10 11 10 9 8 9 9 9 10 9 6 5 4 4 4 5 5 5 5 5 4 4 4 4 4 4 3 3 3 3 2 3 3 3 3 3 3 2 2 2 3 3 3 3 3 3 3 1 1 2 3 4 1 0 2 1 1 0 2 1 1 0 0 1 0 0 0 0 1 0 1 2 4
12 10 9 8 8 8 8 8 8 9 8 7 5 4 4 5 5 6 6 6 5 5 5 4 4 4 3 4 4 3 3 3 4 4 4 3 3 3 3 2 2 3 3 4 4 4 3 3 3 3 3 3 2 2 3 4 2 1 1 0 0 0 0 0 0 1 0 1 1 0 0 0 1 1
9 9 9 8 8 8 9 8 9 8 8 7 7 6 5 4 5 5 5 5 6 5 5 5 5 5 4 3 3 4 3 2 3 3 3 3 4 4 4 4 3 3 4 4 4 5 2 2 2 1 2 3 4 4 3 3 3 3 3 2 1 0 1 2 1 0 0 1 1 1 1 0 0 0
10 11 10 9 9 9 8 9 8 8 7 7 7 7 6 4 4 7 6 7 6 5 4 4 4 4 4 4 4 4 3 3 3 3 3 2 3 3 4 3 4 4 3 4 3 2 1 3 2 1 2 3 3 3 4 4 1 2 2 2 1 0 1 1 3 3 1 2 1 0 1 1 1 1
10 10 10 8 8 8 8 9 10 10 11 9 9 6 6 5 5 6 5 5 5 5 4 4 4 4 4 4 4 3 3 3 3 3 3 3 3 3 3 3 3 3 3 4 4 3 3 3 3 3 3 4 4 3 4 3 1 1 2 2 3 2 1 2 3 3 4 5 2 1 1 1 0 1
9 9 8 6 6 7 6 7 8 8 8 7 8 5 5 5 6 6 6 6 6 6 6 5 5 5 4 4 3 3 3 3 3 4 4 4 3 3 3 3 4 4 4 4 4 4 2 2 3 3 2 4 4 4 5 3 3 4 4 3 2 2 3 1 1 2 3 4 3 3 5 7 7 6
7 8 7 7 7 6 6 6 7 8 8 8 7 5 5 5 5 5 6 6 6 6 6 5 5 4 5 4 4 4 4 5 4 3 3 3 4 4 3 4 4 4 4 4 3 3 3 2 2 2 3 4 3 2 3 2 3 2 1 2 2 2 2 2 3 4 3 2 4 4 6 3 2 4
Wind_Direction
127 123 128 121 124 121 113 92 86 86 131 288 343 322 340 333 304 336 336 346 344 60 139 339 111 138 40 354 338 319 315 329 342 323 319 323 329 336 329 336 339 337 341 346 345 342 340 339 340 340 340 340 339 338 339 339 338 339 342 343 345 345 349 347 347 346 344 342 341 340 341 338 335 341
123 120 113 118 122 126 129 108 94 120 118 99 351 16 343 338 322 333 319 310 293 317 9 352 354 15 354 347 320 311 309 341 340 323 327 327 336 327 330 341 339 340 342 344 345 342 341 340 341 341 342 341 340 341 341 342 342 342 343 342 343 346 350 350 349 347 346 342 341 342 343 341 339 343
122 124 124 119 122 129 110 113 122 127 174 115 107 355 27 328 352 331 286 299 306 46 321 334 10 347 338 331 313 316 327 337 326 333 330 333 325 323 339 342 341 341 343 345 343 343 343 342 343 343 344 343 342 344 343 345 343 343 343 341 342 350 352 350 350 348 347 346 344 345 346 345 344 347
121 125 127 131 130 130 128 130 135 136 88 62 116 96 279 140 55 333 277 256 267 322 312 321 327 344 333 323 319 324 328 327 333 338 334 334 334 345 342 340 339 342 341 341 341 344 345 344 345 344 344 343 345 344 345 347 345 344 344 342 343 354 351 350 351 350 350 349 349 348 347 350 350 350
123 126 127 123 118 133 141 139 148 137 112 116 148 71 342 172 125 226 278 264 279 288 319 328 322 327 330 321 325 324 328 331 341 341 341 345 349 344 343 336 333 338 339 338 341 343 344 344 346 345 345 344 345 346 348 350 347 345 344 341 348 353 352 351 351 352 352 352 352 353 350 352 353 353
124 128 129 129 125 121 125 138 136 132 148 175 161 160 118 346 91 48 254 269 272 288 315 316 319 310 342 312 326 330 330 335 342 341 341 354 356 343 339 334 332 336 338 341 342 342 342 342 345 345 347 346 348 350 353 353 351 348 349 346 354 354 353 353 354 352 354 356 355 357 355 355 358 358
135 135 138 137 132 132 143 140 120 118 144 147 147 107 114 166 60 183 237 265 271 291 304 305 308 321 324 318 323 326 330 335 338 334 341 353 347 343 340 334 333 335 337 340 342 341 340 339 340 342 346 348 351 353 353 353 353 349 349 348 357 356 355 355 357 356 357 357 357 360 0 360 1 359
148 147 140 143 145 158 149 143 139 150 148 164 144 152 186 187 197 212 230 237 259 291 299 311 317 315 318 316 319 322 336 337 334 342 341 357 343 341 338 339 334 335 336 336 339 337 336 336 338 341 346 350 353 355 356 357 354 351 353 357 358 358 357 357 358 359 359 1 359 3 3 2 4 4
148 150 148 146 157 167 149 146 153 144 160 157 153 167 171 197 198 223 228 244 267 284 286 297 303 306 308 316 314 341 341 334 336 345 352 349 348 343 335 333 333 336 340 337 337 333 332 334 337 341 345 351 355 356 356 355 353 349 349 358 1 360 359 359 1 1 2 3 4 5 6 5 7 8
141 147 137 145 161 169 157 153 141 144 163 155 147 164 185 193 230 244 253 252 263 276 281 294 304 319 325 325 322 355 349 339 338 342 354 336 350 344 339 340 336 336 337 340 340 333 333 337 339 340 345 352 355 357 355 352 349 347 353 1 2 1 2 2 3 3 4 6 6 8 9 8 8 11
125 126 136 144 159 160 148 144 155 160 159 160 167 165 170 223 228 265 276 285 280 279 291 290 302 313 324 325 324 346 351 346 346 345 339 338 350 347 340 333 336 327 327 337 336 329 326 333 335 338 342 348 353 354 353 350 348 345 359 3 2 2 3 4 4 5 5 8 9 10 12 12 14 14
124 123 129 141 141 141 145 150 152 159 160 151 173 152 177 212 224 269 311 301 288 291 297 310 315 324 320 319 333 334 340 340 351 8 351 331 331 335 339 336 331 327 332 336 336 331 326 335 338 341 344 347 351 349 349 345 349 353 6 5 4 4 4 4 4 6 8 9 11 12 13 14 14 15
128 125 122 134 123 81 79 72 71 66 55 156 167 164 164 187 194 336 311 294 294 301 314 311 322 323 323 330 339 343 351 357 341 339 340 323 322 322 324 331 328 334 339 332 326 328 333 335 336 340 340 345 349 347 346 343 348 354 5 5 5 6 6 7 5 6 9 11 13 14 16 17 18 17
136 131 119 93 107 116 114 115 121 120 90 41 49 144 147 173 143 200 235 273 300 313 314 318 329 323 321 330 343 337 336 337 335 333 334 328 326 327 320 311 342 339 354 337 330 327 338 337 330 343 341 341 348 347 344 343 346 355 3 5 7 9 10 10 10 8 9 11 13 15 18 20 20 20
146 138 125 132 134 130 133 138 141 139 141 141 115 111 84 63 141 183 227 248 292 307 308 310 311 309 308 314 338 327 333 335 338 329 326 323 328 335 336 326 324 360 355 333 321 316 334 334 337 339 339 342 346 344 346 346 347 356 3 3 9 12 12 11 13 13 13 11 13 15 18 21 21 21
147 145 148 153 162 169 164 153 151 155 162 167 168 165 172 185 209 231 211 218 289 301 303 301 297 302 295 311 321 326 335 330 324 321 320 323 330 328 323 315 312 320 343 326 321 314 325 329 338 333 337 342 343 336 342 349 352 357 2 4 9 14 14 13 13 16 17 16 16 16 17 23 25 25
153 153 155 158 166 133 139 156 158 160 174 186 186 184 174 200 208 222 239 247 248 260 267 269 277 277 295 303 310 329 327 322 312 315 318 324 324 317 307 305 309 313 326 317 323 313 318 339 341 332 334 340 336 332 341 350 354 357 0 5 9 13 15 16 16 15 17 18 22 22 22 21 23 29
157 162 162 161 161 162 172 176 167 176 180 180 192 191 194 196 194 210 225 232 243 245 248 257 263 277 294 297 307 320 324 314 311 316 314 322 315 310 300 303 300 300 312 331 328 304 315 345 335 330 330 334 328 324 338 349 355 358 0 6 10 11 15 18 19 19 19 19 18 23 23 23 26 27
158 162 164 163 160 161 173 178 178 180 183 175 177 168 177 202 219 219 212 216 210 216 239 253 270 283 295 301 302 303 304 301 305 313 309 314 305 296 299 295 291 298 321 347 326 297 314 339 329 327 328 328 323 324 336 348 354 358 360 6 11 12 14 17 18 20 22 22 19 16 18 21 23 25
155 163 165 160 158 164 170 177 183 184 175 164 155 165 181 209 240 245 249 258 262 257 255 260 269 280 285 288 290 291 293 303 316 314 309 296 291 314 309 303 312 305 332 321 301 306 312 331 330 320 324 324 319 319 335 346 354 356 359 5 9 11 14 17 18 19 19 20 21 20 18 21 23 25
158 163 167 159 158 163 170 174 181 183 177 154 164 174 185 197 215 244 252 245 244 248 256 265 273 281 286 289 289 292 298 300 308 310 305 307 332 316 308 305 318 312 319 306 22 314 305 332 329 318 323 327 306 296 335 343 351 354 356 1 4 7 9 14 15 17 18 19 19 22 21 21 22 24
161 166 168 165 161 166 172 176 183 181 179 168 173 174 180 196 213 230 221 221 234 253 265 273 279 285 286 287 289 294 300 300 302 296 290 314 322 299 300 302 312 310 291 268 6 330 315 326 324 321 321 313 319 330 347 351 348 354 355 354 355 1 2 6 10 15 16 18 21 24 25 24 18 14
154 161 173 177 171 175 173 179 183 183 182 175 180 176 182 199 210 215 203 216 241 260 278 287 296 294 291 292 303 306 296 292 291 284 287 305 300 295 296 301 311 313 312 60 27 330 320 329 324 338 330 327 307 291 353 353 348 352 352 347 345 359 360 3 7 11 13 17 19 23 26 28 23 16
168 172 178 190 190 183 180 183 185 188 190 183 182 177 187 193 206 197 187 225 245 263 267 281 288 282 284 281 284 282 281 286 275 264 273 288 292 289 288 291 288 278 275 318 354 339 307 319 317 331 310 312 314 326 316 334 6 351 354 346 348 356 357 357 1 6 11 14 16 18 22 25 27 20
169 176 184 185 195 192 187 187 189 190 195 193 183 188 192 192 169 157 204 237 248 253 253 255 254 256 259 253 254 255 253 254 257 268 279 280 271 274 282 287 283 272 276 287 332 349 315 318 305 312 308 293 283 304 306 308 9 3 350 354 350 346 353 351 350 355 5 10 11 16 20 23 28 31
186 185 179 184 190 192 190 189 190 193 195 195 186 197 191 189 190 194 207 210 217 225 228 236 248 255 264 264 260 262 261 252 256 265 267 262 257 267 268 268 271 273 277 305 326 331 313 299 298 305 299 305 297 302 303 306 12 7 334 352 356 345 354 348 352 357 2 1 358 9 15 22 26 29
187 173 178 178 183 189 188 188 191 194 193 191 193 189 183 190 189 184 198 201 205 223 225 225 237 245 245 250 260 276 269 272 275 273 275 271 262 257 252 256 260 262 276 289 293 301 297 284 292 286 290 296 293 297 294 309 308 343 336 344 352 357 353 355 2 358 360 2 358 10 15 19 22 24
166 167 173 174 180 185 183 187 193 196 192 188 191 181 182 179 180 186 185 181 197 201 216 226 228 223 219 241 256 248 264 287 299 292 274 261 250 235 253 255 254 255 260 261 258 259 275 283 288 284 284 288 289 294 303 317 2 355 335 321 327 8 357 359 2 357 0 3 356 3 8 6 7 16
179 170 164 170 176 178 178 186 193 194 192 197 179 173 173 178 187 189 183 179 170 193 209 216 222 221 211 212 228 270 286 288 286 268 259 247 240 236 240 250 249 246 241 241 239 242 256 275 280 288 290 282 289 300 317 300 326 325 343 335 336 345 2 356 2 360 355 360 4 6 10 4 8 12
166 164 166 168 169 171 178 186 177 164 179 176 173 175 177 189 196 181 174 167 177 198 205 204 215 231 248 246 276 301 280 263 258 265 277 290 290 287 288 297 289 253 226 224 217 227 243 269 277 291 288 278 289 315 324 327 311 332 334 338 307 289 34 355 357 1 357 355 7 10 1 4 18 13
160 161 162 168 166 164 182 177 190 177 175 170 174 174 185 198 184 180 174 178 181 188 181 196 201 232 277 337 295 255 248 255 265 274 279 286 291 311 308 296 282 274 238 195 202 191 201 255 280 275 276 298 302 329 310 314 298 324 325 342 357 14 326 340 347 2 349 349 1 11 12 7 16 23
144 148 160 159 152 151 171 179 184 172 187 186 182 182 179 180 172 163 154 149 154 184 187 187 194 210 223 226 234 250 258 260 259 256 262 272 289 304 316 296 283 286 285 260 228 190 176 214 261 291 298 296 289 297 301 276 281 308 313 317 350 355 5 355 347 347 338 337 0 13 24 11 8 13
132 136 153 157 168 175 186 196 200 198 194 197 185 170 170 161 158 166 176 181 185 179 178 192 194 200 214 228 229 229 241 252 247 263 273 282 283 303 287 270 279 281 285 298 303 285 241 194 172 249 281 292 312 297 280 295 283 262 305 326 344 346 19 357 2 338 329 357 3 7 23 23 6 6
160 174 178 181 178 178 181 198 204 203 202 189 172 183 196 181 177 186 189 184 172 164 177 186 191 201 210 220 220 220 236 248 256 247 247 256 268 264 263 269 273 281 288 289 291 278 304 295 236 196 216 260 253 223 240 263 268 254 314 317 346 344 25 12 346 341 337 343 349 6 20 24 14 1
185 188 191 193 188 192 190 202 206 202 195 190 175 179 180 188 185 185 175 184 160 166 176 191 192 197 203 214 225 218 238 240 250 255 249 236 237 243 251 259 270 280 294 292 286 294 338 302 293 273 224 207 254 252 232 207 247 231 204 224 91 13 353 24 342 335 327 347 360 11 30 30 23 358
205 203 200 198 200 190 198 212 211 203 194 191 189 176 174 191 181 173 182 171 154 175 178 182 190 192 200 204 209 225 236 243 249 244 240 232 234 262 269 267 263 264 265 267 266 286 326 291 281 268 275 267 254 261 205 241 191 237 340 230 116 19 4 31 320 312 347 351 352 358 43 29 21 7
209 208 212 213 207 199 213 213 209 201 197 191 186 187 183 181 172 164 157 137 144 177 185 175 186 189 192 197 205 220 226 233 236 251 247 244 242 245 254 256 263 264 253 249 244 242 242 269 284 275 266 268 258 259 223 15 97 68 199 333 132 105 33 331 318 347 351 325 6 21 32 22 28 6
218 210 216 220 215 213 216 218 209 209 201 184 160 156 157 143 136 124 118 139 173 178 189 186 193 189 191 193 193 214 222 226 229 239 242 237 231 241 249 261 268 273 266 272 245 215 209 235 250 276 280 263 264 272 301 154 166 2 58 4 9 108 103 333 301 339 19 360 30 351 358 28 17 351
216 217 218 220 217 214 215 217 210 208 192 166 159 165 151 151 144 139 163 175 184 179 183 187 188 188 183 199 209 206 207 218 232 240 244 244 244 238 251 258 267 273 289 282 281 233 187 232 220 258 261 254 262 8 44 311 18 140 91 71 63 46 223 146 310 52 250 115 52 12 71 256 287 310
218 221 226 221 223 218 223 218 213 205 195 173 144 153 151 163 158 161 171 177 172 180 178 186 181 182 189 195 199 215 226 213 216 234 241 247 251 256 254 267 277 286 282 269 264 259 202 207 177 200 244 275 313 272 289 282 245 188 160 258 134 167 109 357 313 340 222 54 16 260 204 227 296 325
213 218 225 218 224 222 218 217 203 191 183 169 165 171 160 150 156 169 168 169 162 170 179 181 180 185 193 197 199 199 203 226 227 230 234 238 247 247 253 262 272 264 256 263 257 256 223 130 120 213 224 245 257 273 261 235 227 199 192 187 157 269 214 182 163 274 103 129 224 310 4 24 322 345
210 217 219 212 216 220 209 207 191 170 160 155 154 156 149 155 155 167 166 173 164 171 174 181 175 178 191 198 195 206 194 207 214 235 240 234 242 258 263 254 251 260 263 268 267 291 122 157 165 188 226 230 257 232 242 235 232 143 172 136 155 160 117 188 226 203 143 163 189 229 219 208 161 267
213 219 218 212 208 210 202 198 196 189 180 154 154 153 144 150 155 167 161 167 167 174 184 182 182 180 188 193 193 189 188 209 218 221 228 235 237 240 246 252 259 269 275 274 278 276 253 186 184 204 228 229 240 239 250 274 285 171 168 186 181 135 62 75 137 157 174 202 252 258 233 220 213 262
218 222 227 217 215 216 215 207 204 198 182 167 139 126 152 157 166 172 168 169 172 178 184 182 185 175 181 184 180 188 201 198 212 214 223 232 234 236 242 256 260 262 262 268 268 264 260 230 205 198 225 249 237 226 247 259 267 227 193 175 138 139 163 189 281 168 196 198 162 3 320 237 231 257
220 220 222 218 215 212 206 200 193 187 178 158 147 164 159 163 164 165 172 171 174 176 179 179 177 173 173 183 182 191 205 202 201 215 224 229 233 236 238 243 248 252 252 248 257 273 259 231 224 193 230 247 251 245 264 269 270 297 168 131 181 190 164 168 200 181 189 215 227 274 353 22 262 270